Change the Weather History Date:

Friday, October 4, 2013

  Actual Average (GMMN) Record (GMMN)
Temperature  
Mean Temperature 72 °F -  
Max Temperature 75 °F 75 °F 93 °F (2004)
Min Temperature 70 °F 56 °F 53 °F (2000)
Cooling Degree Days 8    
Growing Degree Days 22 (Base 50)    
Moisture  
Dew Point 70 °F    
Average Humidity 89    
Maximum Humidity 94    
Minimum Humidity 80    
Precipitation  
Precipitation 0.00 in 0.05 in - ()
Sea Level Pressure  
Sea Level Pressure 29.98 in    
Wind  
Wind Speed 4 mph ()    
Max Wind Speed 9 mph    
Max Gust Speed -    
Visibility 6.2 miles    
Events      
Averages and records for this station are not official NWS values.
T = Trace of Precipitation, MM = Missing Value Source: Averaged Metar Reports

Daily Weather History Graph

Daily Weather History Graph

Search for Another Location

Airport or City:

Trip Planner

Search our weather history database for the weather conditions in past years. The results will help you decide how hot, cold, wet, or windy it might be!

Date:

Astronomy

Oct. 04, 2013 Rise Set
Actual Time 7:27 AM WEST 7:10 PM WEST
Civil Twilight 7:02 AM WEST 7:35 PM WEST
Nautical Twilight 6:33 AM WEST 8:04 PM WEST
Astronomical Twilight 6:04 AM WEST 8:33 PM WEST
Moon 6:48 AM WEST (10/4) 6:46 PM WEST (10/4)
Length of Visible Light 12h 33m
Length of Day
11h 43m
Waning Crescent, 0% of the Moon is Illuminated
Oct 4
Waning Crescent
Oct 5
New
Oct 12
First Quarter
Oct 19
Full
Oct 27
Last Quarter

Hourly Weather History & Observations

Time (WEST) Temp. Dew Point Humidity Pressure Visibility Wind Dir Wind Speed Gust Speed Precip Events Conditions
12:00 AM 71.6 °F 69.8 °F 94% 29.89 in 6.2 mi NNE 3.5 mph - N/A   Scattered Clouds
1:00 AM 72 °F 69 °F 86% 29.94 in 6 mi NNW 3.5 mph - -   Partly Cloudy
1:00 AM 71.6 °F 68.0 °F 88% 29.92 in 6.2 mi NNW 3.5 mph - N/A   Scattered Clouds
2:00 AM 71.6 °F 69.8 °F 94% 29.92 in 6.2 mi NNW 3.5 mph - N/A   Mostly Cloudy
3:00 AM 71.6 °F 69.8 °F 94% 29.92 in 6.2 mi NNW 3.5 mph - N/A   Mostly Cloudy
4:00 AM 71 °F 69 °F 91% 29.94 in 6 mi North 2.3 mph - -   Mostly Cloudy
4:00 AM 71.6 °F 69.8 °F 94% 29.92 in 6.2 mi North 2.3 mph - N/A   Mostly Cloudy
5:00 AM 71.6 °F 69.8 °F 94% 29.92 in 6.2 mi North 2.3 mph - N/A   Mostly Cloudy
6:00 AM 71.6 °F 69.8 °F 94% 29.92 in 6.2 mi NNE 2.3 mph - N/A   Scattered Clouds
7:00 AM 72 °F 69 °F 88% 29.95 in 6 mi NNE 2.3 mph - -   Partly Cloudy
7:00 AM 71.6 °F 69.8 °F 94% 29.92 in 6.2 mi NNE 2.3 mph - N/A   Scattered Clouds
8:00 AM 71.6 °F 69.8 °F 94% 29.92 in 6.2 mi North 3.5 mph - N/A   Mostly Cloudy
9:00 AM 73.4 °F 69.8 °F 88% 29.95 in 6.2 mi North 4.6 mph - N/A   Mostly Cloudy
10:00 AM 74 °F 70 °F 85% 29.98 in 6 mi ENE 4.6 mph - -   Partly Cloudy
10:00 AM 73.4 °F 69.8 °F 88% 29.95 in 6.2 mi ENE 4.6 mph - N/A   Mostly Cloudy
11:00 AM 73.4 °F 69.8 °F 88% 29.98 in 6.2 mi NNE 6.9 mph - N/A   Mostly Cloudy
12:00 PM 73.4 °F 69.8 °F 88% 30.01 in 6.2 mi NNE 6.9 mph - N/A   Mostly Cloudy
1:00 PM 74 °F 70 °F 85% 30.05 in 6 mi NNE 9.2 mph - -   Mostly Cloudy
1:00 PM 73.4 °F 69.8 °F 88% 30.01 in 6.2 mi NNE 9.2 mph - N/A   Mostly Cloudy
2:00 PM 73.4 °F 69.8 °F 88% 30.01 in 6.2 mi NNE 9.2 mph - N/A   Mostly Cloudy
3:00 PM 75.2 °F 69.8 °F 83% 30.01 in 6.2 mi NE 4.6 mph - N/A   Mostly Cloudy
4:00 PM 75 °F 70 °F 80% 30.04 in 6 mi NNE 9.2 mph - -   Mostly Cloudy
4:00 PM 75.2 °F 69.8 °F 83% 30.01 in 6.2 mi NNE 9.2 mph - N/A   Mostly Cloudy
5:00 PM 75.2 °F 69.8 °F 83% 30.01 in 6.2 mi NNE 9.2 mph - N/A   Mostly Cloudy
6:00 PM 75.2 °F 69.8 °F 83% 30.01 in 6.2 mi NNE 9.2 mph - N/A   Partly Cloudy
7:00 PM 73 °F 69 °F 84% 30.07 in 6 mi NE 6.9 mph - -   Mostly Cloudy
7:00 PM 73.4 °F 69.8 °F 88% 30.04 in 6.2 mi NE 6.9 mph - N/A   Mostly Cloudy
8:00 PM 73.4 °F 69.8 °F 88% 30.04 in 6.2 mi NE 6.9 mph - N/A   Mostly Cloudy
9:00 PM 71.6 °F 69.8 °F 94% 29.89 in 6.2 mi NNE 5.8 mph - N/A   Mostly Cloudy
10:00 PM 72 °F 69 °F 88% 30.09 in 6 mi ENE 5.8 mph - -   Mostly Cloudy
10:00 PM 71.6 °F 69.8 °F 94% 30.06 in 6.2 mi ENE 5.8 mph - N/A   Mostly Cloudy
11:00 PM 71.6 °F 68.0 °F 88% 30.06 in 6.2 mi ENE 6.9 mph - N/A   Scattered Clouds